Location: Dogstar Observatory
(35.3981°N, 83.1078°W)
Time: 21:54:17
(UTC-05:00)

Tiangong - Visible Passes

Search period start: 05 December 2021 00:00
Search period end: 15 December 2021 00:00
Orbit: 380 x 384 km, 41.5° (Epoch: 05 December)

Date Brightness Start Highest point End Pass type
(mag) Time Alt. Az. Time Alt. Az. Time Alt. Az.
05 Dec 3.4 18:24:43 10° SSE 18:26:07 12° SE 18:26:48 12° SE visible
06 Dec 2.0 18:59:05 10° SW 19:01:35 39° S 19:01:35 39° S visible
07 Dec 2.7 17:59:10 10° SSW 18:01:43 23° SE 18:04:07 11° E visible
07 Dec 3.9 19:35:14 10° W 19:36:17 19° W 19:36:17 19° W visible
08 Dec 1.0 18:34:39 10° WSW 18:37:47 83° SSE 18:38:44 41° ENE visible
09 Dec 2.6 19:11:07 10° W 19:13:17 31° NW 19:13:17 31° NW visible
10 Dec 1.3 18:10:19 10° WSW 18:13:25 58° NNW 18:15:37 18° NE visible
11 Dec 2.3 18:46:57 10° WNW 18:49:47 30° N 18:50:02 29° N visible
12 Dec 1.9 17:46:02 10° W 17:49:01 39° NNW 17:52:01 10° NE visible
12 Dec 3.7 19:23:33 10° WNW 19:24:26 16° NW 19:24:26 16° NW visible
13 Dec 2.5 18:22:40 10° WNW 18:25:24 26° N 18:26:41 20° NE visible
14 Dec 2.7 18:59:02 10° NW 19:01:04 25° NNW 19:01:04 25° NNW visible
